DW9924 Weather Reports


Display with metric or nautical units.
time (UTC)temp
F
wind
direction
speed
MPH
gust
MPH
rain 1hr
in
rain 24hr
in
rain mn
in
humidity
%
barometer
mb
20260901063406 78 21 1.0 6.0 0.00 0.00 0.00 74 1016.8
20260901061908 78 97 1.0 3.0 0.00 0.00 0.00 74 1016.6
20260901061406 77 43 2.0 6.0 0.00 0.00 0.00 74 1016.6
20260901060407 77 58 1.0 5.0 0.00 0.00 0.00 74 1016.5
20260901054906 77 53 2.0 6.0 0.00 0.00 0.00 75 1016.4
20260901054406 77 2 2.0 3.0 0.00 0.00 0.00 75 1016.4
20260901053906 77 32 1.0 3.0 0.00 0.00 0.00 75 1016.3
20260901053406 77 71 1.0 8.0 0.00 0.00 0.00 75 1016.3
20260901051906 77 343 2.0 6.0 0.00 0.00 0.00 75 1016.2
20260901051407 77 53 4.0 12.0 0.00 0.00 0.00 75 1016.2
20260901050907 77 21 2.0 5.0 0.00 0.00 0.00 75 1016.3
20260901044406 77 73 3.0 7.0 0.00 0.00 0.00 74 1016.2
20260901043907 77 114 2.0 6.0 0.00 0.00 0.00 74 1016.2
20260901043406 77 96 0.0 3.0 0.00 0.00 0.00 74 1016.2
20260901041906 78 97 2.0 5.0 0.00 0.00 0.00 73 1016.3
20260901041406 78 37 1.0 3.0 0.00 0.00 0.00 74 1016.2
20260901040906 77 33 3.0 5.0 0.00 0.00 0.00 74 1016.3
20260901040406 77 121 1.0 3.0 0.00 0.00 0.00 74 1016.3
20260901034907 77 52 1.0 3.0 0.00 0.00 0.00 74 1016.2
20260901033906 77 79 1.0 5.0 0.00 0.00 0.00 74 1016.3
20260901033406 77 83 1.0 5.0 0.00 0.00 0.00 74 1016.2
20260901031906 77 101 2.0 6.0 0.00 0.00 0.00 75 1016.1
20260901031406 77 53 2.0 5.0 0.00 0.00 0.00 75 1016.1
20260901030906 77 142 0.0 5.0 0.00 0.00 0.00 76 1016.1
20260901030407 77 57 1.0 3.0 0.00 0.00 0.00 76 1016.2
20260901024907 77 44 2.0 3.0 0.00 0.00 0.00 76 1016.1
20260901024407 77 348 1.0 3.0 0.00 0.00 0.00 75 1016.1
20260901023906 77 353 2.0 6.0 0.00 0.00 0.00 75 1016.2
20260901023406 76 39 1.0 6.0 0.00 0.00 0.00 75 1016.2
20260901021907 76 35 1.0 3.0 0.00 0.00 0.00 75 1016.1
20260901021408 76 34 1.0 3.0 0.00 0.00 0.00 75 1016.2
20260901014408 76 2 2.0 3.0 0.00 0.00 0.00 76 1016.1
20260901013907 76 36 2.0 3.0 0.00 0.00 0.00 76 1016.2
20260901013406 76 22 2.0 5.0 0.00 0.00 0.00 76 1016.2
20260901011907 76 44 2.0 5.0 0.00 0.00 0.00 76 1016.3
20260901011406 76 16 2.0 6.0 0.00 0.00 0.00 76 1016.3
20260901010908 76 19 2.0 5.0 0.00 0.00 0.00 76 1016.4
20260901010406 76 337 2.0 5.0 0.00 0.00 0.00 76 1016.3
20260901004908 76 17 3.0 5.0 0.00 0.00 0.00 76 1016.4
20260901004418 76 39 2.0 3.0 0.00 0.00 0.00 76 1016.4
20260901003917 76 46 1.0 3.0 0.00 0.00 0.00 77 1016.4
20260901001908 76 22 1.0 3.0 0.00 0.00 0.00 76 1016.5
20260901001411 76 22 2.0 3.0 0.00 0.00 0.00 76 1016.5
20260901000912 76 23 2.0 3.0 0.00 0.00 0.00 76 1016.5
20260901000406 76 9 2.0 5.0 0.00 0.00 0.00 76 1016.5
20260831234905 75 23 2.0 3.0 0.00 0.00 0.00 77 1016.6
20260831234407 75 18 1.0 3.0 0.00 0.00 0.00 77 1016.6
20260831233409 75 38 2.0 3.0 0.00 0.00 0.00 77 1016.6
20260831231908 76 59 3.0 7.0 0.00 0.00 0.00 78 1016.7
20260831231406 76 16 0.0 2.0 0.00 0.00 0.00 78 1016.7
20260831230909 76 35 0.0 3.0 0.00 0.00 0.00 78 1016.7
20260831230406 76 17 1.0 5.0 0.00 0.00 0.00 78 1016.7
20260831224407 76 13 1.0 3.0 0.00 0.00 0.00 79 1016.7
20260831221407 76 63 1.0 3.0 0.00 0.00 0.00 79 1016.7
20260831220407 76 19 1.0 3.0 0.00 0.00 0.00 80 1016.5
20260831214907 76 70 1.0 2.0 0.00 0.00 0.00 80 1016.5
20260831214409 76 96 1.0 2.0 0.00 0.00 0.00 80 1016.5
20260831213406 76 142 0.0 3.0 0.00 0.00 0.00 81 1016.5
20260831204905 77 91 1.0 3.0 0.00 0.00 0.00 81 1016.3
20260831204406 77 76 1.0 2.0 0.00 0.00 0.00 81 1016.3
20260831203906 77 140 0.0 0.0 0.00 0.00 0.00 81 1016.2
20260831203406 77 140 0.0 3.0 0.00 0.00 0.00 80 1016.1
20260831201917 77 144 0.0 2.0 0.00 0.00 0.00 80 1015.9
20260831201406 77 144 1.0 3.0 0.00 0.00 0.00 80 1015.9
20260831200905 77 135 1.0 3.0 0.00 0.00 0.00 80 1015.8
20260831200406 77 130 1.0 6.0 0.00 0.00 0.00 80 1015.8
20260831194906 77 180 2.0 5.0 0.00 0.00 0.00 80 1015.8
20260831194405 77 154 1.0 3.0 0.00 0.00 0.00 80 1015.8
20260831193905 77 115 1.0 3.0 0.00 0.00 0.00 80 1015.7
20260831191907 77 87 1.0 2.0 0.00 0.00 0.00 80 1015.7
20260831190917 77 92 1.0 3.0 0.00 0.00 0.00 79 1015.7
20260831190406 77 118 1.0 5.0 0.00 0.00 0.00 79 1015.5
20260831184905 77 124 1.0 3.0 0.00 0.00 0.00 79 1015.5
20260831184405 77 129 1.0 2.0 0.00 0.00 0.00 79 1015.4
20260831183405 78 147 2.0 6.0 0.00 0.00 0.00 78 1015.3
20260831181405 78 125 1.0 6.0 0.00 0.00 0.00 77 1015.0
20260831180907 78 39 2.0 8.0 0.00 0.00 0.00 76 1015.0
20260831180407 78 61 1.0 5.0 0.00 0.00 0.00 76 1015.1
20260831174905 79 132 2.0 7.0 0.00 0.00 0.00 76 1015.1
20260831174405 79 147 1.0 5.0 0.00 0.00 0.00 76 1015.1
20260831173905 79 149 3.0 7.0 0.00 0.00 0.00 76 1015.0
20260831173407 79 139 2.0 7.0 0.00 0.00 0.00 76 1015.1
20260831171905 80 149 3.0 8.0 0.00 0.00 0.00 75 1015.1
20260831170405 80 152 4.0 7.0 0.00 0.00 0.00 74 1015.2
20260831164910 81 150 3.0 7.0 0.00 0.00 0.00 73 1015.3
20260831164405 81 157 3.0 7.0 0.00 0.00 0.00 72 1015.3
20260831161905 82 159 3.0 6.0 0.00 0.00 0.00 71 1015.2
20260831161416 82 160 2.0 7.0 0.00 0.00 0.00 72 1015.3
20260831160905 82 171 2.0 7.0 0.00 0.00 0.00 71 1015.3
20260831154405 82 135 2.0 7.0 0.00 0.00 0.00 72 1015.3
20260831153404 83 128 3.0 8.0 0.00 0.00 0.00 72 1015.3
20260831151907 83 145 3.0 8.0 0.00 0.00 0.00 70 1015.4
20260831151405 83 158 3.0 8.0 0.00 0.00 0.00 69 1015.4
20260831150405 84 134 3.0 7.0 0.00 0.00 0.00 70 1015.5
20260831144905 84 197 2.0 3.0 0.00 0.00 0.00 70 1015.6
20260831143905 84 216 1.0 5.0 0.00 0.00 0.00 71 1015.8
20260831143404 84 169 1.0 3.0 0.00 0.00 0.00 69 1015.9
20260831141404 85 245 3.0 6.0 0.00 0.00 0.00 70 1015.9
20260831140905 85 174 1.0 3.0 0.00 0.00 0.00 68 1015.8
20260831140405 85 183 2.0 7.0 0.00 0.00 0.00 68 1015.9
20260831134905 84 212 2.0 5.0 0.00 0.00 0.00 71 1015.9
20260831134405 83 238 2.0 8.0 0.00 0.00 0.00 71 1015.9
20260831131905 84 239 3.0 6.0 0.00 0.00 0.00 70 1016.1
20260831131405 84 241 3.0 8.0 0.00 0.00 0.00 68 1016.0
20260831130906 85 153 1.0 3.0 0.00 0.00 0.00 67 1016.0
20260831130404 85 233 2.0 7.0 0.00 0.00 0.00 66 1016.1
20260831124905 85 217 1.0 6.0 0.00 0.00 0.00 67 1016.1
20260831124410 85 245 2.0 5.0 0.00 0.00 0.00 66 1016.1
20260831123905 85 215 1.0 3.0 0.00 0.00 0.00 68 1016.0
20260831123405 86 170 2.0 5.0 0.00 0.00 0.00 67 1016.0
20260831121904 84 126 1.0 8.0 0.00 0.00 0.00 68 1016.0
20260831121405 83 257 3.0 9.0 0.00 0.00 0.00 68 1016.1
20260831120905 84 241 2.0 6.0 0.00 0.00 0.00 67 1016.1
20260831114904 84 168 1.0 6.0 0.00 0.00 0.00 68 1016.3
20260831114404 84 246 3.0 7.0 0.00 0.00 0.00 66 1016.3
20260831113904 84 189 2.0 5.0 0.00 0.00 0.00 67 1016.4
20260831113404 84 230 2.0 7.0 0.00 0.00 0.00 69 1016.4
20260831111921 84 188 2.0 3.0 0.00 0.00 0.00 68 1016.5
20260831111405 84 179 1.0 9.0 0.00 0.00 0.00 70 1016.4
20260831110904 84 246 2.0 7.0 0.00 0.00 0.00 70 1016.5
20260831110404 84 243 3.0 8.0 0.00 0.00 0.00 70 1016.6
20260831104407 85 221 1.0 5.0 0.00 0.00 0.00 70 1016.6
20260831103904 84 145 1.0 3.0 0.00 0.00 0.00 70 1016.6
20260831103404 84 175 1.0 3.0 0.00 0.00 0.00 71 1016.6
20260831101904 85 198 1.0 5.0 0.00 0.00 0.00 69 1016.5
20260831101404 84 147 2.0 3.0 0.00 0.00 0.00 67 1016.5
20260831100404 84 196 1.0 6.0 0.00 0.00 0.00 68 1016.5
20260831094905 83 208 2.0 3.0 0.00 0.00 0.00 69 1016.5
20260831094406 83 91 1.0 6.0 0.00 0.00 0.00 68 1016.5
20260831093905 83 135 1.0 7.0 0.00 0.00 0.00 70 1016.4
20260831093422 83 161 1.0 3.0 0.00 0.00 0.00 69 1016.5
20260831091909 83 138 1.0 5.0 0.00 0.00 0.00 69 1016.5
20260831091408 82 169 2.0 3.0 0.00 0.00 0.00 69 1016.5
20260831090910 82 117 1.0 3.0 0.00 0.00 0.00 70 1016.5
20260831090410 83 195 1.0 3.0 0.00 0.00 0.00 71 1016.5
20260831084907 81 179 0.0 3.0 0.00 0.00 0.00 70 1016.5
20260831084407 81 243 1.0 3.0 0.00 0.00 0.00 69 1016.5
20260831081919 80 163 1.0 2.0 0.00 0.00 0.00 71 1016.5
20260831080907 79 191 0.0 2.0 0.00 0.00 0.00 70 1016.4
20260831080422 79 161 0.0 2.0 0.00 0.00 0.00 70 1016.5
20260831074407 81 169 1.0 2.0 0.00 0.00 0.00 68 1016.2
20260831073407 81 179 0.0 2.0 0.00 0.00 0.00 70 1016.1
20260831071907 79 174 1.0 2.0 0.00 0.00 0.00 73 1016.0